Location: Buenos Aires
(34.6076°S, 58.4371°W)
Time: 12:45:39
(UTC-03:00)

Envisat - Pass Details

Date: 03 July 2021
Orbit: 764 x 766 km, 98.2° (Epoch: 03 August)

Event Time Altitude Azimuth Distance (km) Brightness Sun altitude
Rises 18:55:54 0° 179° (S) 3,267 6.1 -12.3°
Reaches altitude 10° 18:58:24 10° 188° (S) 2,333 5.4 -12.8°
Maximum altitude 19:02:58 33° 251° (WSW) 1,276 4.7 -13.7°
Drops below altitude 10° 19:07:30 10° 313° (NW) 2,308 6.5 -14.6°
Sets 19:09:58 0° 323° (NW) 3,226 7.2 -15.1°
